Theta_e
305 300 300 297 287 284 280 283 288 288 288 293 295 294 293 296 303 294 305 313 318 319 322 326 330 331 330 329 329 328 328 328 328 328 328 328 329 330 333 335 336 338 342 345 346 346 346 346 346
301 302 299 290 283 278 279 283 287 289 292 293 294 293 294 294 298 301 308 313 315 317 318 321 329 327 326 325 325 325 325 325 325 325 325 325 326 325 326 328 329 332 335 338 340 340 340 341 344
298 300 295 288 281 279 281 286 287 293 293 293 291 292 293 292 297 304 306 312 312 313 317 321 325 324 324 323 323 323 323 322 322 322 323 323 323 323 323 323 323 324 327 330 332 333 333 333 337
297 296 290 286 283 286 284 286 292 290 292 294 292 292 292 296 298 305 309 309 309 311 315 321 323 323 322 321 321 320 320 320 320 321 321 320 320 319 319 320 321 322 323 324 325 326 326 327 329
292 289 283 281 283 287 287 289 287 288 289 294 291 289 291 295 300 305 306 307 307 307 311 314 321 320 319 319 319 318 319 319 318 317 317 317 317 316 317 318 320 320 320 322 323 324 324 324 325
289 287 280 279 280 285 287 287 285 287 287 289 292 289 292 295 301 301 304 303 305 305 307 309 316 316 316 316 316 316 316 316 315 314 314 314 314 314 314 315 317 317 318 319 319 319 319 319 319
287 283 280 279 281 283 286 286 284 286 285 286 291 290 291 294 298 300 301 301 301 302 302 302 303 308 312 312 313 313 313 312 311 311 310 309 309 309 310 311 314 314 315 316 316 315 316 315 314
287 285 280 280 282 284 285 285 287 285 285 289 292 287 289 293 298 297 297 296 297 297 299 299 298 297 298 300 310 310 309 308 308 307 305 303 303 304 305 306 309 311 312 312 313 313 312 311 309
287 282 279 282 282 284 285 284 286 288 286 287 289 288 290 294 295 294 292 292 292 294 293 295 296 294 296 297 301 303 305 303 302 300 302 296 294 296 296 302 305 307 308 309 310 310 309 306 305
285 281 283 285 284 283 285 284 285 285 285 285 286 291 293 293 294 293 292 291 291 291 291 292 292 293 294 296 293 292 294 292 292 293 292 293 292 295 296 297 301 302 303 304 305 306 304 301 298
284 282 284 286 287 287 286 285 285 283 283 287 286 287 292 291 291 292 292 291 291 292 292 292 291 291 292 292 291 290 290 290 290 291 291 291 291 291 291 291 291 292 296 294 295 295 296 297 297
283 286 286 288 289 287 285 286 285 286 287 288 288 289 292 292 291 291 291 291 291 290 291 291 291 290 290 291 290 289 289 288 289 290 291 290 289 289 289 290 290 290 291 291 292 293 295 296 297
284 286 288 288 288 288 288 287 287 286 289 289 289 289 291 292 293 292 292 292 291 291 290 290 290 290 290 289 288 288 288 288 288 289 290 290 289 288 289 289 289 289 290 290 291 292 294 295 295
288 287 287 288 288 287 287 284 286 286 287 286 287 287 287 290 292 290 291 291 291 292 290 290 290 289 289 288 287 287 287 287 288 288 289 290 289 288 288 288 288 289 290 291 291 291 292 293 294
288 285 286 287 287 286 286 285 283 287 288 286 285 286 287 287 288 291 292 292 292 291 291 290 289 289 288 287 287 287 287 288 287 287 288 289 290 288 287 287 287 288 290 290 289 290 290 291 293
284 283 281 286 286 286 286 282 286 286 286 285 286 284 285 286 287 287 288 290 292 291 290 290 291 288 287 286 286 287 286 286 286 286 287 289 290 289 287 287 287 288 289 288 287 288 288 289 290
282 279 280 284 287 285 284 282 286 285 286 285 284 282 283 284 285 285 286 286 290 290 289 288 288 287 287 286 286 286 286 285 284 284 286 287 288 289 287 287 287 288 287 287 287 287 288 288 289
280 279 281 282 284 283 281 281 285 285 285 283 281 281 281 282 282 284 285 285 286 286 287 287 287 286 286 285 284 284 284 284 283 283 285 286 287 288 286 286 286 287 286 285 286 286 288 288 288
284 282 281 283 284 282 281 281 284 284 281 281 280 280 280 281 281 283 284 284 285 285 285 286 285 284 284 282 282 281 281 281 282 284 286 286 286 287 286 285 285 285 284 284 286 286 286 287 287
283 281 280 283 284 282 280 281 284 284 281 281 280 280 280 280 280 283 283 283 283 283 284 284 284 284 283 282 281 281 280 281 281 283 284 285 285 286 287 285 284 284 284 284 285 285 285 286 286
282 281 280 281 282 280 279 278 279 281 281 281 281 280 280 279 279 279 281 280 281 281 282 283 283 283 282 282 281 281 281 281 281 281 281 283 284 285 285 284 283 283 283 283 284 285 284 283 285
281 284 283 281 279 275 278 271 278 280 280 281 281 280 279 278 280 280 280 279 280 281 281 282 282 282 282 281 280 279 279 279 280 279 281 281 282 283 284 283 282 282 283 283 285 287 286 286 284
283 284 282 281 278 273 276 270 276 277 278 279 280 280 280 279 279 280 280 282 281 281 280 280 281 281 281 281 280 279 278 278 279 279 279 279 280 282 282 282 281 281 282 282 283 283 284 283 284
285 283 282 280 277 268 274 274 275 275 276 277 278 279 280 279 280 280 281 281 280 280 279 279 280 280 281 280 280 279 278 278 278 278 278 279 280 280 281 282 281 281 282 284 284 284 284 284 284
284 281 274 272 270 270 273 272 276 277 278 277 278 278 277 277 279 280 280 280 280 279 279 279 279 279 279 279 279 279 279 278 278 278 278 278 278 279 280 281 281 281 282 284 284 284 284 284 283
281 282 276 270 266 268 274 269 276 276 271 268 272 270 277 278 279 278 278 279 278 280 280 279 279 279 278 277 278 278 278 277 278 279 279 279 278 277 280 281 282 283 282 283 283 283 283 284 283
280 278 280 271 267 264 268 273 277 277 274 272 272 279 278 276 276 277 277 277 277 277 278 278 278 278 277 277 276 275 275 277 277 278 279 278 280 280 281 282 281 282 282 282 282 282 282 282 281
282 282 276 274 266 263 265 266 272 272 273 274 272 277 277 276 276 276 276 276 276 276 276 277 276 272 272 275 274 276 275 275 273 273 276 275 280 280 280 279 280 280 280 281 281 281 281 281 281
278 277 277 277 270 264 263 268 269 271 273 273 274 277 273 273 273 274 274 274 269 269 267 270 268 266 270 272 272 274 275 275 271 273 274 278 279 279 278 279 279 279 279 280 280 280 281 280 280
278 275 276 272 266 264 264 268 265 265 269 273 275 278 273 274 272 271 272 269 267 266 267 264 264 262 268 269 270 272 273 271 268 269 271 276 278 279 279 279 279 279 280 280 280 280 280 276 274
Wind_Speed
3 2 2 6 5 5 4 7 2 3 2 1 1 3 3 2 4 5 3 2 6 7 6 6 9 10 10 10 11 12 12 13 13 13 13 13 13 14 12 12 13 13 14 15 15 15 15 13 9
2 1 5 3 6 2 6 4 5 6 1 4 2 1 1 2 2 2 4 2 5 7 6 7 9 9 9 10 11 12 13 13 13 13 13 13 14 13 13 14 15 14 12 12 13 13 14 14 14
2 4 5 5 4 6 6 5 4 2 2 2 1 1 1 1 1 7 2 8 7 7 6 7 10 10 9 10 11 12 12 13 13 13 13 13 14 14 14 14 14 13 13 13 12 12 12 13 13
3 5 5 5 6 7 7 3 2 1 2 4 2 2 1 1 2 6 8 9 9 6 7 9 10 10 10 10 11 12 12 12 12 13 13 14 14 14 13 13 12 13 13 13 13 13 13 14 15
5 4 3 1 6 6 5 5 2 3 3 1 2 1 2 2 3 7 8 8 10 6 6 7 11 10 10 10 10 11 11 12 13 13 13 14 14 14 14 14 14 15 15 15 15 16 16 15 14
5 4 3 4 6 5 6 4 1 4 2 1 2 3 2 2 5 5 7 7 6 8 6 7 10 10 10 9 10 10 11 12 12 13 13 13 14 14 14 14 14 14 14 14 15 15 14 14 14
7 5 4 3 5 6 5 2 3 1 1 2 3 1 2 2 5 6 7 7 6 6 7 6 6 7 10 10 10 11 11 12 12 13 13 14 14 14 14 15 15 15 14 14 14 13 13 14 14
6 5 4 5 4 7 1 1 2 2 2 0 4 3 3 3 8 7 6 6 6 5 6 6 6 5 6 5 10 10 11 11 12 12 12 13 13 14 14 14 14 14 14 14 14 13 13 14 14
4 4 3 5 7 5 2 0 1 2 1 1 3 2 2 7 9 7 4 3 3 2 4 5 5 5 5 6 7 9 10 10 10 9 11 9 4 6 8 12 14 14 14 13 13 13 13 14 12
4 4 10 6 6 4 1 1 3 2 2 2 2 4 4 7 6 9 6 7 5 5 4 4 5 5 5 4 5 5 5 4 4 5 5 4 5 5 7 9 13 13 14 14 13 14 13 10 4
4 6 4 4 4 3 2 2 1 1 2 8 3 2 5 4 6 7 7 7 8 7 4 6 6 5 6 5 3 2 2 3 3 5 5 4 4 4 3 3 4 4 10 4 7 6 3 5 4
3 6 4 3 1 1 2 1 3 6 7 1 5 3 6 9 10 11 11 8 8 7 7 6 5 5 4 3 3 3 3 2 2 3 4 3 3 4 4 3 4 4 3 5 4 3 5 5 5
4 3 3 4 3 5 3 7 7 7 9 5 6 4 7 8 9 5 5 6 6 8 7 7 6 6 5 4 3 2 2 3 2 3 3 3 3 3 3 3 3 4 4 4 4 4 4 5 5
0 2 5 5 4 4 5 3 6 1 5 1 3 5 2 6 9 4 6 7 9 6 7 7 7 6 6 4 4 3 2 2 3 3 3 4 3 3 3 4 4 4 4 3 4 4 4 4 4
1 5 6 6 4 7 6 6 10 6 4 5 7 5 6 5 2 7 6 9 9 6 9 9 8 7 7 6 4 3 2 3 3 2 3 3 3 3 3 3 4 4 4 5 4 4 4 4 4
1 1 3 1 4 2 5 8 2 5 6 5 7 7 6 6 4 5 7 8 8 7 11 9 7 7 7 6 4 3 3 2 2 2 2 2 2 2 2 2 3 3 3 3 4 4 4 4 4
1 5 5 7 4 3 5 7 5 4 7 7 5 6 5 6 6 7 7 7 6 6 9 8 7 7 6 5 4 3 3 3 2 2 1 2 2 2 2 2 2 3 3 3 4 3 3 4 5
8 6 5 6 2 4 4 10 10 1 5 6 6 6 6 6 6 7 7 6 6 7 8 8 6 6 6 4 3 3 2 1 2 2 1 3 2 2 2 2 3 3 3 3 3 3 3 3 5
5 4 5 3 1 2 7 7 13 6 1 3 2 3 3 3 2 4 6 6 8 8 9 7 7 5 3 2 2 1 0 1 1 2 2 3 3 3 3 2 3 3 3 3 4 3 3 2 7
4 4 5 3 1 1 5 12 12 6 4 4 2 0 2 1 2 4 6 7 6 6 7 6 6 5 3 2 2 2 1 1 1 1 1 3 4 4 2 3 2 3 2 4 4 4 3 3 5
5 8 5 4 0 2 5 9 5 2 2 3 3 1 1 1 1 1 3 4 3 4 4 5 5 5 3 3 2 1 1 0 0 0 1 2 3 2 2 2 1 2 1 1 2 3 4 3 2
7 8 5 4 4 5 2 8 6 4 5 5 5 4 4 2 1 1 0 2 3 3 3 4 5 5 3 4 2 2 2 2 1 1 1 3 3 0 2 1 2 2 2 3 3 4 3 3 4
2 5 6 4 4 4 1 2 6 1 6 7 8 6 5 1 3 5 5 5 4 3 4 3 3 3 3 3 3 3 3 2 1 2 3 3 2 0 1 1 2 1 0 0 2 3 2 2 2
11 7 7 5 3 3 5 6 6 6 7 4 4 6 5 2 4 4 4 3 2 2 3 4 4 4 4 4 4 5 5 4 3 3 3 3 2 1 1 2 1 3 1 1 2 2 3 2 2
3 8 2 0 2 8 1 1 10 5 6 4 9 7 2 2 3 4 5 5 4 5 6 5 5 5 5 5 4 5 5 5 5 4 3 3 2 1 2 2 1 2 3 2 2 2 3 3 3
6 5 6 8 5 3 2 9 9 5 1 1 1 2 3 1 3 5 5 5 5 5 4 5 5 5 5 5 5 4 5 3 3 4 3 3 2 2 3 3 3 3 3 3 2 2 3 3 3
6 7 4 7 2 4 4 7 8 4 1 1 2 6 5 1 3 5 6 4 4 5 5 5 4 4 5 5 3 4 3 4 4 5 3 2 3 3 3 3 3 3 3 3 3 3 3 3 4
4 5 5 1 4 5 4 6 8 5 8 4 3 7 4 1 3 4 5 5 4 4 5 4 2 4 3 3 3 4 4 4 3 2 4 3 3 3 3 4 4 4 3 3 3 3 3 4 4
5 4 1 4 3 7 1 9 7 8 9 10 8 6 5 3 3 4 5 5 4 2 3 5 3 3 3 4 3 4 4 4 3 3 4 4 3 4 4 4 4 3 4 4 3 4 5 5 5
2 6 5 5 5 1 4 9 1 5 6 7 7 4 2 3 3 4 4 6 5 4 5 5 3 4 5 4 4 5 4 3 3 4 4 3 5 4 4 4 4 4 4 4 5 5 4 4 5
Wind_Direction
15 26 66 44 65 65 259 260 261 262 251 255 53 146 193 92 166 204 303 287 123 102 85 94 110 99 90 82 75 70 70 70 67 61 59 56 54 51 45 42 41 34 30 30 36 37 33 31 18
348 182 46 81 94 74 265 244 228 231 288 124 118 43 235 242 135 113 115 145 101 102 89 93 104 100 91 83 75 70 64 59 59 60 60 54 51 47 44 40 35 35 31 23 26 27 30 23 31
146 42 86 99 123 185 222 219 241 254 183 217 97 43 126 193 162 170 191 137 109 94 96 97 109 103 93 83 77 72 66 61 57 57 59 56 53 47 41 34 33 28 26 27 27 25 22 25 14
73 17 37 99 226 249 210 250 221 284 219 197 155 225 283 100 165 185 145 128 108 105 102 111 111 101 89 80 75 71 68 60 59 61 54 53 49 44 39 36 33 30 30 24 23 18 19 24 22
41 56 71 183 253 261 250 254 256 255 269 222 172 245 240 69 28 120 127 123 119 108 100 106 109 102 92 81 75 71 70 66 63 58 57 52 48 46 40 32 31 30 22 19 23 23 24 23 19
54 101 75 239 254 260 275 245 227 215 211 236 140 143 254 87 113 131 122 120 117 119 98 84 95 101 96 90 86 79 72 64 65 59 54 52 49 40 39 32 30 25 21 21 19 16 14 14 11
120 101 206 223 255 294 237 348 214 212 98 276 123 177 301 146 151 136 122 109 107 101 99 90 88 94 100 97 92 87 78 65 58 58 54 49 44 40 36 29 25 21 19 16 15 14 15 12 9
111 104 172 231 214 260 230 326 174 161 189 358 168 225 267 192 143 109 94 108 123 122 120 117 103 90 81 56 88 87 80 67 61 56 51 48 42 39 32 30 22 20 16 10 8 8 12 10 6
140 71 215 237 165 242 353 351 214 333 173 275 189 145 12 114 115 108 112 99 100 111 136 137 132 117 112 97 72 68 74 64 58 48 44 37 29 29 28 21 19 16 15 11 9 5 6 4 2
105 148 219 209 192 207 220 135 304 8 66 287 298 92 81 130 158 162 174 179 185 180 182 163 146 140 122 100 90 86 84 70 57 50 42 35 35 24 35 22 20 13 14 9 8 4 3 0 351
172 213 232 263 229 174 178 280 243 241 235 227 233 162 151 156 178 188 202 190 191 186 175 172 164 154 134 123 116 90 70 64 52 44 36 32 31 24 24 17 9 3 6 0 358 355 356 350 350
194 234 230 316 336 12 246 142 275 206 219 133 158 115 159 181 201 206 207 195 178 177 186 177 165 147 140 119 112 118 110 90 60 50 45 46 34 23 17 16 5 8 354 353 349 345 337 343 346
223 255 190 228 212 260 317 243 235 243 238 263 267 240 196 208 223 238 212 191 181 189 181 178 161 159 146 122 109 100 94 95 99 48 35 49 41 30 13 6 4 3 352 353 344 341 339 335 335
211 271 275 272 229 238 212 267 130 358 111 213 134 46 310 230 232 214 205 208 202 178 176 161 169 157 146 139 136 127 111 83 52 47 28 32 48 30 26 4 360 357 355 347 344 341 338 328 329
353 316 313 235 211 221 165 276 232 252 328 77 81 10 350 349 248 235 238 216 196 189 163 172 164 157 149 139 129 116 92 70 54 36 34 37 59 43 18 5 5 350 346 352 349 336 321 324 324
12 48 295 316 151 193 143 260 179 50 75 333 331 352 350 344 349 342 321 277 211 169 173 157 151 145 137 132 120 105 69 65 52 42 17 28 47 42 50 29 9 349 351 356 347 341 331 330 319
282 231 216 310 203 158 179 257 208 64 17 318 345 349 344 341 352 342 332 318 233 165 143 136 128 132 124 112 101 90 90 85 53 20 10 354 359 49 79 61 3 3 357 355 348 336 333 325 328
192 215 229 235 231 196 215 259 275 5 18 335 347 1 13 16 354 341 3 23 54 86 100 105 104 110 103 94 86 71 70 55 36 11 348 353 1 45 67 39 14 20 8 347 343 328 318 294 324
142 176 209 216 164 233 234 261 270 299 283 333 10 11 20 41 347 26 41 58 76 65 89 103 116 124 116 95 108 84 325 334 348 1 54 53 23 19 41 29 27 20 11 343 335 316 332 330 347
168 184 224 272 156 264 325 275 257 244 217 191 220 283 35 82 46 37 46 51 65 105 112 120 127 135 116 116 136 131 159 224 259 306 52 37 29 13 77 55 33 17 359 1 356 6 348 338 14
213 208 182 217 24 39 332 283 262 228 167 186 188 178 196 225 304 40 66 87 103 115 137 143 150 146 129 123 107 82 39 25 318 273 318 350 2 20 62 59 37 7 17 330 349 23 36 351 320
213 185 146 139 108 243 4 281 290 217 228 212 203 192 188 152 50 357 273 193 186 197 169 155 155 156 155 148 131 181 196 226 220 217 261 307 327 6 33 57 48 35 12 17 340 28 7 350 355
196 112 109 94 92 34 214 46 261 81 246 223 214 205 204 202 317 292 282 256 233 181 190 178 167 181 160 174 175 183 224 227 249 268 280 288 295 350 51 42 7 338 60 318 4 352 12 4 338
142 89 64 59 80 298 204 171 257 194 212 170 167 184 192 311 315 303 302 263 233 184 189 196 197 215 190 190 193 200 223 244 250 257 265 267 255 238 311 332 345 306 305 17 330 333 327 319 319
121 143 139 190 182 229 243 127 256 240 216 199 168 176 162 298 318 316 315 308 282 240 226 213 214 228 205 206 212 218 226 232 241 248 245 250 245 238 283 274 292 281 298 293 292 292 288 287 281
184 170 166 193 201 222 102 231 251 220 185 310 338 199 231 283 333 317 308 293 284 269 250 231 213 226 203 212 230 226 234 227 242 242 241 239 206 215 252 265 239 266 289 287 285 272 268 277 272
167 203 119 101 46 49 208 281 289 143 5 26 216 167 171 191 338 334 323 311 315 300 285 241 219 228 217 217 221 224 227 236 241 251 239 222 238 223 240 248 256 264 268 270 266 258 265 271 259
208 159 136 129 171 233 276 274 244 213 217 211 228 199 193 155 353 336 331 330 324 332 319 298 260 227 238 220 211 233 232 229 233 249 249 229 233 242 246 248 244 255 257 251 246 253 256 246 249
153 189 147 120 127 166 192 258 212 209 191 184 199 198 212 243 276 303 306 322 304 307 317 291 295 273 272 256 241 243 238 230 232 243 241 230 238 235 236 237 248 254 249 246 238 241 247 249 255
96 185 169 146 218 151 142 271 265 249 192 161 185 192 217 207 249 285 311 316 326 348 340 297 286 267 247 250 244 243 238 225 242 249 241 249 234 230 233 238 242 242 248 244 239 246 263 255 249